Location: Cronhütte
(48.9135°N, 9.6869°E)
Time: 19:30:39
(UTC+00:00)

IDEFIX/ARIANE 42P - Pass Details

Date: 23 May 2024
Orbit: 783 x 799 km, 98.5° (Epoch: 23 June)

Event Time Altitude Azimuth Distance (km) Brightness Sun altitude
Rises 01:17:21 0° 14° (NNE) 3,318 7.4 -15.5°
Reaches altitude 10° 01:19:41 10° 14° (NNE) 2,384 6.3 -15.3°
Maximum altitude 01:24:58 90° 42° (NE) 807 2.6 -14.9°
Enters shadow 01:28:35 21° 196° (SSW) 1,730 3.7 -14.6°
